Flag for Germany Weather past 2 weeks in Korschenbroich, North Rhine-Westphalia, Germany

Now
61 °F

Passing clouds.


Feels Like: 61 °F
Forecast: 44 / 53 °F
Wind: 5 mph from North

Location: Monchengladbach Airport

Current Time: Apr 26, 2015 at 3:19:20 PM

Latest Report: Apr 26, 2015 at 2:50 PM


Visibility: N/A

Pressure: 29.71 "Hg

Humidity: 77%

Dew point: 54 °F

Location of KorschenbroichLocation

Historic Weather in Korschenbroich — Graph

°F

Korschenbroich temperature yesterday

Maximum temperature yesterday: 61 °F (at 7:20 PM)
Minimum temperature yesterday: 52 °F (at 7:50 AM)
Average temperature yesterday: 57 °F

Past Weeks' High & Low Weather Summary

 TemperatureHumidityPressure
High75 °F (Apr 15, 3:20 PM)100% (Apr 12, 7:50 AM)30.48 "Hg (Apr 12, 7:50 AM)
Low37 °F (Apr 12, 7:50 AM)26% (Apr 21, 5:20 PM)29.71 "Hg (Apr 26, 1:50 PM)
Average57 °F58%30.16 "Hg
* Reported Apr 11 2:20 PM — Apr 26 2:20 PM, Korschenbroich, Weather by CustomWeather, © 2015

Note: Actual official high and low records may vary slightly from our data, if they occured in-between our weather recording intervals... More about our weather records

Advertising

Korschenbroich weather history for previous 24 hours

 ConditionsComfort  
Time TempWeatherWind HumidityBarometerVisibility
2:20 PM
Sun, Apr 26
59 °FScattered showers. Passing clouds.6 mph88%29.71 "HgN/A
1:50 PM57 °FPassing clouds.3 mph100%29.71 "HgN/A
1:20 PM57 °FSprinkles. Passing clouds.7 mph88%29.74 "HgN/A
12:50 PM59 °FBroken clouds.7 mph77%29.74 "HgN/A
12:20 PM61 °FBroken clouds.7 mph72%29.74 "HgN/A
11:50 AM59 °FScattered clouds.6 mph77%29.74 "HgN/A
11:20 AM59 °FBroken clouds.7 mph77%29.74 "HgN/A
10:50 AM59 °FBroken clouds.8 mph77%29.74 "HgN/A
10:20 AM59 °FBroken clouds.7 mph77%29.74 "HgN/A
9:50 AM57 °FPartly sunny.9 mph88%29.74 "HgN/A
9:20 AM57 °FScattered clouds.7 mph88%29.74 "HgN/A
8:50 AM55 °FScattered clouds.7 mph100%29.74 "HgN/A
8:20 AM55 °FPartly sunny.5 mph100%29.74 "HgN/A
7:50 AM55 °FPartly sunny.3 mph100%29.74 "HgN/A
7:50 PM
Sat, Apr 25
61 °FPassing clouds.6 mph72%29.74 "HgN/A
7:20 PM61 °FPassing clouds.5 mph72%29.74 "HgN/A
6:20 PM59 °FPartly cloudy.8 mph72%29.74 "HgN/A
5:50 PM59 °FPartly cloudy.5 mph88%29.74 "HgN/A
5:20 PM59 °FLight rain. Partly cloudy.7 mph77%29.74 "HgN/A
4:50 PM59 °FPartly cloudy.7 mph77%29.74 "HgN/A
4:20 PM59 °FPassing clouds.7 mph77%29.74 "HgN/A
3:50 PM57 °FPartly cloudy.9 mph82%29.77 "HgN/A
3:20 PM59 °FScattered showers. Passing clouds.7 mph82%29.74 "Hg5 mi
Weather by CustomWeather, © 2015

See weather overviewHow to use our weather pages